Home   Weather   Nottingham   Past weeks
Flag for United Kingdom

Past Weather in Nottingham, England, United Kingdom — Yesterday and Last 2 Weeks

Now
59 °F

Passing clouds.


Feels Like: 57 °F
Forecast: 71 / 54 °F
Wind: 9 mph from West

Location: East Midlands

Current Time: Jul 20, 2019 at 11:51:08 pm

Latest Report: Jul 20, 2019 at 11:20 pm


Visibility: N/A

Pressure: 29.95 "Hg

Humidity: 77%

Dew Point: 52 °F

Location of NottinghamLocation

Past Weather in Nottingham — Graph

°F

Nottingham Temperature Yesterday

Maximum temperature yesterday: 68 °F (at 4:50 pm)
Minimum temperature yesterday: 54 °F (at 4:20 am)
Average temperature yesterday: 60 °F

High & Low Weather Summary for the Past Weeks

 TemperatureHumidityPressure
High75 °F (Jul 16, 12:50 pm)100% (Jul 6, 1:20 pm)30.27 "Hg (Jul 6, 1:20 pm)
Low50 °F (Jul 8, 4:20 am)43% (Jul 7, 3:50 pm)29.59 "Hg (Jul 20, 5:50 am)
Average62 °F79%30.01 "Hg
* Reported Jul 5 10:20 pm — Jul 20 10:50 pm, Nottingham. Weather by CustomWeather, © 2019

Note: Actual official high and low records may vary slightly from our data, if they occured in-between our weather recording intervals... More about our weather records

Advertising

Nottingham Weather History for the Previous 24 Hours

Scroll right to see more
 ConditionsComfort  
Time TempWeatherWind HumidityBarometerVisibility
10:50 pm
Sat, Jul 20
57 °FPassing clouds.8 mph77%29.95 "HgN/A
9:50 pm61 °FPassing clouds.10 mph68%29.92 "HgN/A
9:20 pm61 °FPassing clouds.10 mph68%29.92 "HgN/A
8:50 pm63 °FPartly sunny.9 mph68%29.89 "HgN/A
8:20 pm63 °FPartly sunny.8 mph68%29.89 "HgN/A
7:50 pm63 °FScattered clouds.10 mph68%29.86 "HgN/A
7:20 pm64 °FPassing clouds.14 mph68%29.86 "HgN/A
6:50 pm66 °FPassing clouds.14 mph64%29.83 "HgN/A
6:20 pm66 °FPassing clouds.15 mph64%29.80 "HgN/A
5:50 pm66 °FPassing clouds.15 mph64%29.80 "HgN/A
5:20 pm66 °FPassing clouds.16 mph64%29.80 "HgN/A
4:50 pm66 °FPassing clouds.15 mph78%29.77 "HgN/A
4:20 pm66 °FBroken clouds.14 mph78%29.77 "HgN/A
3:50 pm64 °FBroken clouds.15 mph83%29.74 "HgN/A
3:20 pm63 °FBroken clouds.12 mph94%29.74 "HgN/A
2:50 pm63 °FScattered showers. Scattered clouds.12 mph94%29.74 "HgN/A
1:50 pm70 °FPartly sunny.24 mph69%29.68 "HgN/A
12:50 pm66 °FSprinkles. Scattered clouds.21 mph78%29.68 "HgN/A
12:20 pm68 °FScattered showers. Partly sunny.20 mph69%29.65 "HgN/A
11:50 am66 °FPartly sunny.20 mph73%29.65 "HgN/A
11:20 am68 °FPartly sunny.21 mph69%29.65 "HgN/A
10:50 am66 °FPartly sunny.18 mph68%29.65 "HgN/A
10:20 am66 °FMostly cloudy.20 mph73%29.62 "HgN/A
9:50 am64 °FPartly sunny.20 mph78%29.62 "HgN/A
9:20 am64 °FScattered clouds.21 mph78%29.62 "HgN/A
8:50 am63 °FBroken clouds.20 mph83%29.62 "HgN/A
8:20 am64 °FPartly sunny.16 mph83%29.62 "HgN/A
7:50 am63 °FScattered clouds.17 mph88%29.59 "HgN/A
7:20 am63 °FScattered clouds.17 mph94%29.59 "HgN/A
6:20 am63 °FPartly sunny.16 mph94%29.59 "HgN/A
5:50 am63 °FBroken clouds.15 mph94%29.59 "HgN/A
5:20 am63 °FBroken clouds.16 mph94%29.62 "Hg6 mi
4:50 am63 °FMostly cloudy.13 mph94%29.62 "HgN/A
4:20 am63 °FPartly cloudy.12 mph94%29.62 "HgN/A
3:50 am63 °FMostly cloudy.12 mph94%29.62 "HgN/A
3:20 am63 °FMostly cloudy.13 mph94%29.65 "HgN/A
2:50 am63 °FMostly cloudy.10 mph94%29.65 "HgN/A
2:20 am61 °FPartly cloudy.10 mph100%29.65 "HgN/A
1:50 am61 °FPartly cloudy.9 mph100%29.68 "HgN/A
1:20 am61 °FPassing clouds.12 mph100%29.68 "HgN/A
12:50 am61 °FPassing clouds.12 mph94%29.68 "HgN/A
12:20 am61 °FPassing clouds.13 mph94%29.68 "HgN/A
11:50 pm
Fri, Jul 19
61 °FLight rain. Passing clouds.10 mph94%29.68 "HgN/A
11:20 pm61 °FPassing clouds.9 mph94%29.68 "HgN/A
Weather by CustomWeather, © 2019

See weather overview